Volver al catálogo

SL-14 DEB

ActivoPO
NORAD 45287·DEBRIS·🇷🇺 Russia

Lanzado Aug 15, 1991 desde Plesetsk Cosmodrome

Loading…

Próximos Pases (próximas 24 horas)

TLE

ActualizadoSource: Space-Track

Época: Sep 13, 2026, 20:52 UTC

1 45287U 91056Z   26256.86975174  .00000301  00000-0  57965-3 0  9994
2 45287  82.5715  36.1369 0070574  48.6188 312.0982 13.33084038319340

Sigue SL-14 DEB en tiempo real con AllMySat

Download on the App Store